When you browse on this site, cookies collect data to enhance your experience and personalize the content and advertising you see.
Visit our Privacy Policy to learn more. By continuing to use the site, you agree to this use of cookies and data.
  • In Portugal
  • List of Countries
  • For 7 days
  • Water Temperature
  • Satellite Maps
  • Weather Map
  • Weather Widgets
  • user-avatar
    Login

    Hourly Weather Gabrovo

    Today, 25 March, Monday

    Time Temperature Precipitation Wind Pressure Humidity
    00:00 +6°C° 0 mm 1 mps 702 mmHg 56%
    01:00 +6°C° 0 mm 1 mps 702 mmHg 56%
    02:00 +6°C° 0 mm 1 mps 702 mmHg 57%
    03:00 +5°C° 0 mm 1 mps 702 mmHg 58%
    04:00 +5°C° 0 mm 1 mps 701 mmHg 59%
    05:00 +5°C° 0 mm 1 mps 701 mmHg 60%
    06:00 +6°C° 0 mm 1 mps 701 mmHg 58%
    07:00 +6°C° 0 mm 1 mps 701 mmHg 56%
    08:00 +7°C° 0 mm 1 mps 700 mmHg 55%
    09:00 +9°C° 0 mm 1 mps 700 mmHg 49%
    10:00 +11°C° 0 mm 1 mps 700 mmHg 43%
    11:00 +13°C° 0 mm 2 mps 700 mmHg 36%
    12:00 +14°C° 0 mm 2 mps 700 mmHg 35%
    13:00 +15°C° 0 mm 2 mps 699 mmHg 33%
    14:00 +16°C° 0 mm 2 mps 699 mmHg 32%
    15:00 +16°C° 0 mm 2 mps 698 mmHg 34%
    16:00 +16°C° 0 mm 2 mps 698 mmHg 36%
    17:00 +16°C° 0 mm 2 mps 697 mmHg 38%
    18:00 +14°C° 0 mm 2 mps 697 mmHg 44%
    19:00 +12°C° 0 mm 2 mps 697 mmHg 51%
    20:00 +9°C° 0 mm 2 mps 696 mmHg 58%
    21:00 +8°C° 0 mm 2 mps 696 mmHg 60%
    22:00 +7°C° 0 mm 2 mps 696 mmHg 63%
    23:00 +8°C° 0 mm 1 mps 696 mmHg 65%

    Tomorrow, 26 March, Tuesday

    Time Temperature Precipitation Wind Pressure Humidity
    00:00 +8°C° 0 mm 1 mps 696 mmHg 66%
    01:00 +7°C° 0 mm 1 mps 696 mmHg 66%
    02:00 +7°C° 0 mm 1 mps 696 mmHg 67%
    03:00 +7°C° 0 mm 1 mps 696 mmHg 67%
    04:00 +7°C° 0 mm 1 mps 696 mmHg 67%
    05:00 +7°C° 0 mm 1 mps 696 mmHg 68%
    06:00 +8°C° 0 mm 1 mps 696 mmHg 66%
    07:00 +9°C° 0 mm 1 mps 697 mmHg 64%
    08:00 +9°C° 0 mm 2 mps 698 mmHg 63%
    09:00 +10°C° 0 mm 2 mps 698 mmHg 59%
    10:00 +12°C° 0 mm 2 mps 699 mmHg 55%
    11:00 +14°C° 0 mm 2 mps 699 mmHg 51%
    12:00 +13°C° 0 mm 3 mps 699 mmHg 51%
    13:00 +13°C° 0 mm 3 mps 699 mmHg 51%
    14:00 +13°C° 0 mm 4 mps 699 mmHg 51%
    15:00 +11°C° 0.2 mm 4 mps 699 mmHg 54%
    16:00 +10°C° 0.2 mm 4 mps 699 mmHg 57%
    17:00 +7°C° 0.2 mm 5 mps 700 mmHg 61%
    18:00 +7°C° 0.1 mm 4 mps 700 mmHg 64%
    19:00 +7°C° 0.1 mm 3 mps 701 mmHg 68%
    20:00 +6°C° 0.1 mm 2 mps 701 mmHg 71%
    21:00 +6°C° 0.2 mm 2 mps 702 mmHg 74%
    22:00 +6°C° 0.2 mm 2 mps 702 mmHg 77%
    23:00 +7°C° 0.2 mm 1 mps 702 mmHg 80%

    Day after tomorrow, 27 March, Wednesday

    Time Temperature Precipitation Wind Pressure Humidity
    00:00 +7°C° 0.1 mm 1 mps 703 mmHg 81%
    01:00 +6°C° 0.1 mm 1 mps 703 mmHg 83%
    02:00 +6°C° 0.1 mm 1 mps 703 mmHg 84%
    03:00 +5°C° 0.1 mm 0 mps 703 mmHg 83%
    04:00 +5°C° 0.1 mm 0 mps 703 mmHg 83%
    05:00 +5°C° 0.1 mm 0 mps 703 mmHg 83%
    06:00 +5°C° 0.1 mm 0 mps 704 mmHg 80%
    07:00 +6°C° 0.1 mm 1 mps 704 mmHg 78%
    08:00 +7°C° 0.1 mm 1 mps 704 mmHg 75%
    09:00 +8°C° 0.1 mm 1 mps 705 mmHg 70%
    10:00 +8°C° 0.1 mm 0 mps 705 mmHg 66%
    11:00 +9°C° 0.1 mm 0 mps 706 mmHg 61%
    12:00 +9°C° 0.3 mm 0 mps 706 mmHg 61%
    13:00 +10°C° 0.3 mm 1 mps 706 mmHg 61%
    14:00 +10°C° 0.3 mm 1 mps 705 mmHg 61%
    15:00 +10°C° 0.5 mm 1 mps 705 mmHg 64%
    16:00 +9°C° 0.5 mm 2 mps 705 mmHg 68%
    17:00 +8°C° 0.5 mm 2 mps 705 mmHg 71%
    18:00 +8°C° 0.6 mm 2 mps 705 mmHg 75%
    19:00 +7°C° 0.6 mm 2 mps 706 mmHg 79%
    20:00 +6°C° 0.6 mm 2 mps 706 mmHg 83%
    21:00 +6°C° 0.8 mm 2 mps 706 mmHg 82%
    22:00 +6°C° 0.8 mm 2 mps 707 mmHg 80%
    23:00 +4°C° 0.8 mm 3 mps 707 mmHg 79%

    28 March, Thursday

    Time Temperature Precipitation Wind Pressure Humidity
    00:00 +4°C° 0.1 mm 3 mps 707 mmHg 78%
    01:00 +4°C° 0.1 mm 2 mps 707 mmHg 78%
    02:00 +4°C° 0.1 mm 2 mps 707 mmHg 77%
    03:00 +3°C° 0.1 mm 2 mps 707 mmHg 79%
    04:00 +3°C° 0.1 mm 2 mps 707 mmHg 81%
    05:00 +3°C° 0.1 mm 2 mps 708 mmHg 82%
    06:00 +3°C° 0.1 mm 2 mps 708 mmHg 81%
    07:00 +3°C° 0.1 mm 2 mps 708 mmHg 79%
    08:00 +2°C° 0.1 mm 3 mps 709 mmHg 77%
    09:00 +3°C° 0.1 mm 3 mps 709 mmHg 73%
    10:00 +5°C° 0.1 mm 2 mps 709 mmHg 68%
    11:00 +5°C° 0.1 mm 2 mps 709 mmHg 64%
    12:00 +6°C° 0.1 mm 2 mps 709 mmHg 62%
    13:00 +7°C° 0.1 mm 2 mps 709 mmHg 61%
    14:00 +7°C° 0.1 mm 2 mps 708 mmHg 59%
    15:00 +7°C° 0.1 mm 2 mps 708 mmHg 60%
    16:00 +7°C° 0.1 mm 2 mps 708 mmHg 61%
    17:00 +7°C° 0.1 mm 3 mps 708 mmHg 62%
    18:00 +5°C° 0.1 mm 3 mps 708 mmHg 65%
    19:00 +4°C° 0.1 mm 3 mps 708 mmHg 67%
    20:00 +3°C° 0.1 mm 3 mps 709 mmHg 70%
    21:00 +3°C° 0 mm 2 mps 709 mmHg 72%
    22:00 +1°C° 0 mm 2 mps 709 mmHg 75%
    23:00 +1°C° 0 mm 1 mps 709 mmHg 77%

    29 March, Friday

    Time Temperature Precipitation Wind Pressure Humidity
    00:00 +1°C° 0 mm 1 mps 709 mmHg 78%
    01:00 0°C° 0 mm 1 mps 709 mmHg 78%
    02:00 0°C° 0 mm 1 mps 709 mmHg 79%
    03:00 0°C° 0 mm 1 mps 709 mmHg 77%
    04:00 0°C° 0 mm 1 mps 709 mmHg 76%
    05:00 -3°C° 0 mm 2 mps 709 mmHg 74%
    06:00 -2°C° 0 mm 2 mps 709 mmHg 68%
    07:00 -1°C° 0 mm 2 mps 709 mmHg 62%
    08:00 +1°C° 0 mm 2 mps 710 mmHg 56%
    09:00 +1°C° 0 mm 3 mps 710 mmHg 52%
    10:00 +3°C° 0 mm 3 mps 710 mmHg 48%
    11:00 +4°C° 0 mm 3 mps 710 mmHg 44%
    12:00 +5°C° 0 mm 4 mps 710 mmHg 43%
    13:00 +5°C° 0 mm 4 mps 709 mmHg 42%
    14:00 +6°C° 0 mm 4 mps 709 mmHg 42%
    15:00 +6°C° 0 mm 5 mps 708 mmHg 42%
    16:00 +5°C° 0 mm 5 mps 708 mmHg 43%
    17:00 +5°C° 0 mm 5 mps 708 mmHg 44%
    18:00 +3°C° 0 mm 4 mps 708 mmHg 49%
    19:00 +1°C° 0 mm 4 mps 708 mmHg 53%
    20:00 0°C° 0 mm 3 mps 708 mmHg 58%
    21:00 +1°C° 0 mm 2 mps 708 mmHg 60%
    22:00 -1°C° 0 mm 2 mps 707 mmHg 62%
    23:00 -1°C° 0 mm 2 mps 707 mmHg 64%

    30 March, Saturday

    Time Temperature Precipitation Wind Pressure Humidity
    00:00 -2°C° 0 mm 2 mps 707 mmHg 64%
    01:00 -2°C° 0 mm 2 mps 707 mmHg 64%
    02:00 -2°C° 0 mm 2 mps 707 mmHg 65%
    03:00 -2°C° 0 mm 2 mps 706 mmHg 63%
    04:00 -2°C° 0 mm 3 mps 706 mmHg 62%
    05:00 -2°C° 0 mm 3 mps 706 mmHg 61%
    06:00 -1°C° 0 mm 3 mps 706 mmHg 57%
    07:00 0°C° 0 mm 3 mps 706 mmHg 54%
    08:00 +1°C° 0 mm 3 mps 707 mmHg 50%
    09:00 +3°C° 0 mm 4 mps 706 mmHg 47%
    10:00 +4°C° 0 mm 4 mps 706 mmHg 44%
    11:00 +5°C° 0 mm 4 mps 706 mmHg 41%
    12:00 +6°C° 0 mm 5 mps 705 mmHg 42%
    13:00 +5°C° 0 mm 6 mps 705 mmHg 44%
    14:00 +7°C° 0 mm 6 mps 704 mmHg 45%
    15:00 +5°C° 0 mm 6 mps 704 mmHg 48%
    16:00 +5°C° 0 mm 6 mps 703 mmHg 51%
    17:00 +5°C° 0 mm 6 mps 703 mmHg 54%
    18:00 +5°C° 0 mm 5 mps 703 mmHg 59%
    19:00 +3°C° 0 mm 4 mps 702 mmHg 63%
    20:00 +2°C° 0 mm 3 mps 702 mmHg 68%
    21:00 +2°C° 0 mm 3 mps 702 mmHg 69%
    22:00 +3°C° 0 mm 2 mps 702 mmHg 70%
    23:00 +3°C° 0 mm 2 mps 702 mmHg 71%
    Show more